Location: Newark
(35.2672°N, 80.7344°W)
Time: 14:57:24
(UTC+00:00)

SR - Pass Details

Date: 25 January 2020
Orbit: 575 x 881 km, 66.7° (Epoch: 17 February)

Event Time Altitude Azimuth Distance (km) Brightness Sun altitude
Rises 11:05:17 0° 350° (N) 3,386 ? -16.8°
Reaches altitude 10° 11:09:26 10° 19° (NNE) 2,383 ? -15.9°
Maximum altitude 11:11:44 13° 44° (NE) 2,164 ? -15.5°
Drops below altitude 10° 11:13:57 10° 69° (ENE) 2,296 ? -15.0°
Sets 11:17:45 0° 98° (E) 3,136 ? -14.3°
